Date,TemperatureHighF,TemperatureAvgF,TemperatureLowF,DewpointHighF,DewpointAvgF,DewpointLowF,HumidityHigh,HumidityAvg,HumidityLow,PressureMaxIn,PressureMinIn,WindSpeedMaxMPH,WindSpeedAvgMPH,GustSpeedMaxMPH,PrecipitationSumIn
2013-10-3,79,79,79,64,64,64,59,59,59,30.03,30.03,7,7,0,0.00
2013-10-4,81,80,78,79,74,69,95,83,66,29.93,29.78,37,26,0,0.00
2013-10-5,79,78,77,74,73,72,84,84,84,29.93,29.93,17,16,0,0.00
2013-10-6,83,82,79,78,76,74,86,82,78,29.96,29.87,31,21,0,0.00
2013-10-7,86,82,81,76,74,72,81,77,72,29.96,29.91,13,8,0,0.00
2013-10-8,82,82,82,75,75,75,78,78,78,29.96,29.94,8,6,0,0.00
2013-10-9,83,82,81,73,70,63,74,68,50,29.98,29.91,17,16,0,0.00
2013-10-10,82,81,79,75,69,62,81,68,49,29.99,29.97,23,20,0,0.00
2013-10-11,81,80,79,76,70,60,85,73,49,30.02,29.97,23,14,0,0.00
2013-10-12,81,76,77,76,67,-100,85,81,83,30.09,29.94,17,12,0,0.00
2013-10-13,83,80,77,79,74,65,95,79,65,30.15,29.95,24,16,0,0.00
2013-10-14,79,78,74,74,71,68,87,81,73,30.06,29.90,22,14,0,0.00
2013-10-15,81,79,77,76,74,71,92,83,74,29.99,29.86,23,16,0,0.00
2013-10-16,81,80,79,76,75,74,85,85,85,29.95,29.88,24,18,0,0.00
2013-10-17,84,80,77,78,64,-100,92,79,72,29.98,29.95,15,11,0,0.00
2013-10-18,81,79,77,75,72,68,93,81,70,30.00,29.88,28,8,0,0.00
2013-10-19,75,73,70,70,65,57,83,75,63,30.06,29.94,28,22,0,0.00
2013-10-20,84,81,70,78,74,63,82,77,71,30.02,29.98,25,12,0,0.00
2013-10-21,86,84,82,80,76,74,82,75,72,30.02,29.95,15,10,0,0.00
2013-10-22,84,84,83,76,74,73,80,73,69,29.96,29.93,9,9,0,0.00
2013-10-23,84,82,81,82,76,73,99,83,69,29.96,29.87,17,10,0,0.00
2013-10-24,82,82,82,76,76,75,80,79,78,30.00,29.94,41,25,0,0.00
2013-10-25,78,78,78,71,71,71,78,78,78,30.24,30.24,32,32,0,0.00
2013-10-28,81,81,81,-100,-100,-100,0,0,100,30.15,30.15,23,23,0,0.00
2013-10-29,81,81,81,-100,-100,-100,0,0,100,30.18,30.18,30,30,0,0.00
2013-10-30,75,75,75,71,71,71,84,84,84,30.15,30.15,32,32,0,0.00
2013-10-31,79,77,75,74,72,65,88,82,63,30.12,30.02,23,19,0,0.00